Weather History for Hayward, WI

Change the Weather History Date:

Wednesday, July 31, 2013

  Actual Average Record
Temperature  
Mean Temperature 65 °F -  
Max Temperature 78 °F 81 °F 104 °F (2006)
Min Temperature 51 °F 51 °F 41 °F (1998)
Growing Degree Days 15 (Base 50)    
Moisture  
Dew Point 57 °F    
Average Humidity 81    
Maximum Humidity 100    
Minimum Humidity 34    
Precipitation  
Precipitation 0.02 in - - ()
Sea Level Pressure  
Sea Level Pressure 30.03 in    
Wind  
Wind Speed 1 mph (WSW)    
Max Wind Speed 13 mph    
Max Gust Speed 20 mph    
Visibility 6 miles    
Events Fog , Rain    
Averages and records for this station are not official NWS values.
T = Trace of Precipitation, MM = Missing Value Source: NWS Daily Summary

Daily Weather History Graph

Daily Weather History Graph

Search for Another Location

Airport:

Trip Planner

Search our weather history database for the weather conditions in past years. The results will help you decide how hot, cold, wet, or windy it might be!

Date:

Astronomy

Jul. 31, 2013 Rise Set
Actual Time 5:47 AM CDT 8:36 PM CDT
Civil Twilight 5:12 AM CDT 9:10 PM CDT
Nautical Twilight 4:28 AM CDT 9:54 PM CDT
Astronomical Twilight 3:36 AM CDT 10:46 PM CDT
Moon 12:43 AM CDT (7/31) 3:53 PM CDT (7/31)
Length of Visible Light 15h 58m
Length of Day
14h 48m
Waning Crescent, 31% of the Moon is Illuminated
Jul 31
Waning Crescent
Aug 6
New
Aug 14
First Quarter
Aug 20
Full
Aug 28
Last Quarter

Hourly Weather History & Observations

Time (CDT) Temp. Dew Point Humidity Pressure Visibility Wind Dir Wind Speed Gust Speed Precip Events Conditions
12:04 AM 60.8 °F 59.0 °F 94% 30.07 in 1.8 mi Calm Calm - N/A   Clear
12:07 AM 59.0 °F 57.2 °F 94% 30.07 in 0.8 mi Calm Calm - N/A   Clear
12:12 AM 57.2 °F 57.2 °F 100% 30.08 in 0.5 mi Calm Calm - N/A Fog Fog
12:19 AM 57.2 °F 57.2 °F 100% 30.07 in 1.2 mi Calm Calm - N/A   Partly Cloudy
12:25 AM 57.2 °F 55.4 °F 94% 30.08 in 0.8 mi Calm Calm - N/A   Mist
12:43 AM 53.6 °F 53.6 °F 100% 30.06 in 0.2 mi Calm Calm - N/A Fog Fog
12:47 AM 55.4 °F 53.6 °F 94% 30.06 in 0.2 mi Calm Calm - N/A Fog Fog
12:53 AM 55.9 °F 55.0 °F 97% 30.06 in 0.2 mi Calm Calm - N/A Fog Fog
2:53 AM 57.9 °F 57.9 °F 100% 30.06 in 0.2 mi Calm Calm - N/A Fog Fog
3:53 AM 59.0 °F 57.9 °F 96% 30.05 in 0.2 mi Calm Calm - N/A Fog Fog
4:53 AM 60.1 °F 59.0 °F 96% 30.06 in 0.2 mi Calm Calm - N/A Fog Fog
5:53 AM 61.0 °F 60.1 °F 97% 30.05 in 0.2 mi Calm Calm - N/A Fog Fog
6:10 AM 60.8 °F 60.8 °F 100% 30.05 in 1.2 mi Calm Calm - N/A   Overcast
6:53 AM 62.1 °F 61.0 °F 96% 30.05 in 2.0 mi Variable 3.5 mph - 0.02 in Rain Light Rain
7:05 AM 62.6 °F 60.8 °F 94% 30.06 in 3.0 mi SW 3.5 mph - 0.00 in   Overcast
7:23 AM 62.6 °F 60.8 °F 94% 30.06 in 3.0 mi Calm Calm - 0.00 in   Overcast
7:31 AM 62.6 °F 60.8 °F 94% 30.06 in 4.0 mi Calm Calm - 0.00 in   Overcast
7:53 AM 62.1 °F 62.1 °F 100% 30.05 in 5.0 mi Calm Calm - 0.00 in   Overcast
8:29 AM 64.4 °F 62.6 °F 94% 30.04 in 9.0 mi Calm Calm - N/A   Overcast
8:43 AM 64.4 °F 62.6 °F 94% 30.04 in 10.0 mi Calm Calm - N/A   Overcast
8:53 AM 64.0 °F 63.0 °F 96% 30.04 in 10.0 mi Calm Calm - N/A   Overcast
9:53 AM 66.0 °F 63.0 °F 90% 30.04 in 10.0 mi Variable 3.5 mph - N/A   Overcast
10:03 AM 66.2 °F 62.6 °F 88% 30.03 in 10.0 mi WSW 3.5 mph - N/A   Overcast
10:45 AM 66.2 °F 60.8 °F 83% 30.03 in 10.0 mi Variable 3.5 mph - N/A   Mostly Cloudy
10:53 AM 66.9 °F 61.0 °F 81% 30.03 in 10.0 mi WSW 3.5 mph - N/A   Mostly Cloudy
11:48 AM 69.8 °F 60.8 °F 73% 30.02 in 10.0 mi SW 4.6 mph - N/A   Scattered Clouds
11:53 AM 70.0 °F 61.0 °F 73% 30.01 in 10.0 mi Variable 3.5 mph - N/A   Scattered Clouds
12:53 PM 75.0 °F 60.1 °F 60% 30.00 in 10.0 mi Variable 6.9 mph - N/A   Mostly Cloudy
1:53 PM 75.9 °F 55.0 °F 48% 29.99 in 10.0 mi WSW 8.1 mph - N/A   Partly Cloudy
2:53 PM 77.0 °F 52.0 °F 42% 29.98 in 10.0 mi West 12.7 mph 19.6 mph N/A   Mostly Cloudy
3:53 PM 77.0 °F 48.0 °F 36% 29.96 in 10.0 mi WSW 10.4 mph 19.6 mph N/A   Mostly Cloudy
4:53 PM 75.0 °F 45.0 °F 34% 29.96 in 10.0 mi Variable 6.9 mph 16.1 mph N/A   Partly Cloudy
5:53 PM 75.9 °F 46.9 °F 36% 29.95 in 10.0 mi West 10.4 mph 18.4 mph N/A   Scattered Clouds
6:53 PM 73.9 °F 46.0 °F 37% 29.96 in 10.0 mi WNW 6.9 mph 17.3 mph N/A   Partly Cloudy
7:53 PM 71.1 °F 46.9 °F 42% 29.96 in 10.0 mi Variable 3.5 mph - N/A   Clear
8:53 PM 62.1 °F 48.9 °F 62% 29.97 in 10.0 mi Calm Calm - N/A   Clear
9:53 PM 55.0 °F 51.1 °F 86% 29.99 in 10.0 mi Calm Calm - N/A   Clear
10:53 PM 53.1 °F 50.0 °F 89% 30.00 in 10.0 mi Calm Calm - N/A   Clear
11:53 PM 51.1 °F 48.0 °F 89% 29.99 in 10.0 mi Calm Calm - N/A   Clear